Powrót do katalogu

NATO 2B

AktywnyMilitariaGEO
NORAD 4902·PAYLOAD· XX

Wystrzelony Feb 3, 1971 z Cape Canaveral Space Force Station

Loading…

TLE

ŚwieżeSource: Space-Track

Epoka: Sep 14, 2026, 13:18 UTC

1 04902U 71009A   26257.55434413 -.00000098  00000-0  00000-0 0  9991
2 04902   0.9452 239.3101 0003363 278.6634 290.3500  1.00271471119538

Śledź NATO 2B w czasie rzeczywistym z AllMySat

Download on the App Store